Time,TemperatureF,DewpointF,PressureIn,WindDirection,WindDirectionDegrees,WindSpeedMPH,WindSpeedGustMPH,Humidity,HourlyPrecipIn,Conditions,Clouds,dailyrainin,SoftwareType,DateUTC
2013-02-22 00:01:00,20.8,11.9,30.33,North,351,0.0,7.0,68,0.00,,,0.00,Wunderground v.1.15,2013-02-22 05:01:00,
2013-02-22 00:03:00,20.8,11.9,30.34,North,351,0.0,7.0,68,0.00,,,0.00,Wunderground v.1.15,2013-02-22 05:03:00,
2013-02-22 00:05:00,20.8,11.9,30.34,North,355,0.0,7.0,68,0.00,,,0.00,Wunderground v.1.15,2013-02-22 05:05:00,
2013-02-22 00:11:00,20.8,11.9,30.33,North,355,0.0,7.0,68,0.00,,,0.00,Wunderground v.1.15,2013-02-22 05:11:00,
2013-02-22 00:17:00,20.8,11.9,30.33,North,355,0.0,7.0,68,0.00,,,0.00,Wunderground v.1.15,2013-02-22 05:17:00,
2013-02-22 00:23:00,20.8,12.2,30.32,NW,321,0.0,7.0,69,0.00,,,0.00,Wunderground v.1.15,2013-02-22 05:23:00,
2013-02-22 00:29:00,21.0,12.4,30.32,NW,325,0.0,7.0,69,0.00,,,0.00,Wunderground v.1.15,2013-02-22 05:29:00,
2013-02-22 00:33:00,21.0,12.4,30.32,NW,325,0.0,7.0,69,0.00,,,0.00,Wunderground v.1.15,2013-02-22 05:33:00,
2013-02-22 00:40:00,21.3,12.7,30.32,NNE,19,0.0,7.0,69,0.00,,,0.00,Wunderground v.1.15,2013-02-22 05:40:00,
2013-02-22 00:45:00,21.4,12.8,30.32,NNW,342,1.0,7.0,69,0.00,,,0.00,Wunderground v.1.15,2013-02-22 05:45:00,
2013-02-22 00:51:00,21.6,13.0,30.32,NNW,346,0.0,7.0,69,0.00,,,0.00,Wunderground v.1.15,2013-02-22 05:51:00,
2013-02-22 00:57:00,21.9,13.6,30.32,North,360,1.0,7.0,70,0.00,,,0.00,Wunderground v.1.15,2013-02-22 05:57:00,
2013-02-22 01:03:00,22.1,13.8,30.32,North,9,1.0,7.0,70,0.00,,,0.00,Wunderground v.1.15,2013-02-22 06:03:00,
2013-02-22 01:09:00,22.2,13.9,30.32,NW,315,2.0,7.0,70,0.00,,,0.00,Wunderground v.1.15,2013-02-22 06:09:00,
2013-02-22 01:15:00,22.4,13.8,30.32,North,351,2.0,7.0,69,0.00,,,0.00,Wunderground v.1.15,2013-02-22 06:15:00,
2013-02-22 01:21:00,22.5,13.9,30.32,NNE,16,1.0,7.0,69,0.00,,,0.00,Wunderground v.1.15,2013-02-22 06:21:00,
2013-02-22 01:27:00,22.5,13.9,30.32,ENE,58,1.0,7.0,69,0.00,,,0.00,Wunderground v.1.15,2013-02-22 06:27:00,
2013-02-22 01:33:00,22.7,14.4,30.32,NE,44,1.0,7.0,70,0.00,,,0.00,Wunderground v.1.15,2013-02-22 06:33:00,
2013-02-22 01:39:00,22.7,14.4,30.32,NE,50,1.0,7.0,70,0.00,,,0.00,Wunderground v.1.15,2013-02-22 06:39:00,
2013-02-22 01:45:00,23.0,14.7,30.32,NNE,13,2.0,7.0,70,0.00,,,0.00,Wunderground v.1.15,2013-02-22 06:45:00,
2013-02-22 01:51:00,23.0,14.7,30.32,NE,35,2.0,7.0,70,0.00,,,0.00,Wunderground v.1.15,2013-02-22 06:51:00,
2013-02-22 01:57:00,23.0,14.7,30.32,NE,51,3.0,10.0,70,0.00,,,0.00,Wunderground v.1.15,2013-02-22 06:57:00,
2013-02-22 02:03:00,23.0,14.7,30.31,NNE,23,4.0,10.0,70,0.00,,,0.00,Wunderground v.1.15,2013-02-22 07:03:00,
2013-02-22 02:09:00,22.9,14.6,30.32,SSE,149,3.0,7.0,70,0.00,,,0.00,Wunderground v.1.15,2013-02-22 07:09:00,
2013-02-22 02:15:00,22.7,14.4,30.31,ENE,61,2.0,7.0,70,0.00,,,0.00,Wunderground v.1.15,2013-02-22 07:15:00,
2013-02-22 02:21:00,22.7,14.4,30.31,NNE,15,3.0,7.0,70,0.00,,,0.00,Wunderground v.1.15,2013-02-22 07:21:00,
2013-02-22 02:27:00,22.5,14.5,30.31,NNE,12,3.0,7.0,71,0.00,,,0.00,Wunderground v.1.15,2013-02-22 07:27:00,
2013-02-22 02:33:00,22.5,14.5,30.31,NNE,20,3.0,7.0,71,0.00,,,0.00,Wunderground v.1.15,2013-02-22 07:33:00,
2013-02-22 02:39:00,22.5,14.5,30.31,North,9,3.0,7.0,71,0.00,,,0.00,Wunderground v.1.15,2013-02-22 07:39:00,
2013-02-22 02:45:00,22.4,14.4,30.30,NNE,18,3.0,7.0,71,0.00,,,0.00,Wunderground v.1.15,2013-02-22 07:45:00,
2013-02-22 02:50:00,22.4,14.7,30.30,NE,51,2.0,7.0,72,0.00,,,0.00,Wunderground v.1.15,2013-02-22 07:50:00,
2013-02-22 02:56:00,22.2,14.5,30.30,NNE,14,2.0,7.0,72,0.00,,,0.00,Wunderground v.1.15,2013-02-22 07:56:00,
2013-02-22 03:02:00,22.2,14.5,30.31,NE,48,1.0,7.0,72,0.00,,,0.00,Wunderground v.1.15,2013-02-22 08:02:00,
2013-02-22 03:08:00,22.2,14.5,30.32,NE,48,0.0,7.0,72,0.00,,,0.00,Wunderground v.1.15,2013-02-22 08:08:00,
2013-02-22 03:14:00,22.2,14.5,30.33,NW,322,0.0,7.0,72,0.00,,,0.00,Wunderground v.1.15,2013-02-22 08:14:00,
2013-02-22 03:20:00,22.2,14.9,30.33,WNW,300,1.0,7.0,73,0.00,,,0.00,Wunderground v.1.15,2013-02-22 08:20:00,
2013-02-22 03:26:00,22.4,15.1,30.33,NE,52,1.0,7.0,73,0.00,,,0.00,Wunderground v.1.15,2013-02-22 08:26:00,
2013-02-22 03:32:00,22.4,15.1,30.33,NW,311,1.0,7.0,73,0.00,,,0.00,Wunderground v.1.15,2013-02-22 08:32:00,
2013-02-22 03:38:00,22.4,15.1,30.34,NW,311,0.0,7.0,73,0.00,,,0.00,Wunderground v.1.15,2013-02-22 08:38:00,
2013-02-22 03:44:00,22.5,15.1,30.34,NW,311,0.0,7.0,73,0.00,,,0.00,Wunderground v.1.15,2013-02-22 08:44:00,
2013-02-22 03:50:00,22.5,15.1,30.35,NW,311,0.0,7.0,73,0.00,,,0.00,Wunderground v.1.15,2013-02-22 08:50:00,
2013-02-22 03:56:00,22.7,15.3,30.36,NW,311,0.0,7.0,73,0.00,,,0.00,Wunderground v.1.15,2013-02-22 08:56:00,
2013-02-22 04:02:00,22.7,15.3,30.36,NW,311,0.0,7.0,73,0.00,,,0.00,Wunderground v.1.15,2013-02-22 09:02:00,
2013-02-22 04:08:00,22.9,15.5,30.36,WNW,284,0.0,7.0,73,0.00,,,0.00,Wunderground v.1.15,2013-02-22 09:08:00,
2013-02-22 04:14:00,22.9,15.5,30.36,North,351,0.0,7.0,73,0.00,,,0.00,Wunderground v.1.15,2013-02-22 09:14:00,
2013-02-22 04:20:00,22.9,15.5,30.36,North,351,0.0,7.0,73,0.00,,,0.00,Wunderground v.1.15,2013-02-22 09:20:00,
2013-02-22 04:26:00,22.9,15.2,30.36,North,351,0.0,7.0,72,0.00,,,0.00,Wunderground v.1.15,2013-02-22 09:26:00,
2013-02-22 04:32:00,22.9,15.2,30.36,North,350,0.0,7.0,72,0.00,,,0.00,Wunderground v.1.15,2013-02-22 09:32:00,
2013-02-22 04:38:00,22.9,15.2,30.36,North,351,0.0,7.0,72,0.00,,,0.00,Wunderground v.1.15,2013-02-22 09:38:00,
2013-02-22 04:44:00,22.9,15.2,30.36,North,351,0.0,7.0,72,0.00,,,0.00,Wunderground v.1.15,2013-02-22 09:44:00,
2013-02-22 04:50:00,22.7,15.0,30.36,NE,43,1.0,7.0,72,0.00,,,0.00,Wunderground v.1.15,2013-02-22 09:50:00,
2013-02-22 04:56:00,22.5,14.8,30.36,NE,52,1.0,7.0,72,0.00,,,0.00,Wunderground v.1.15,2013-02-22 09:56:00,
2013-02-22 05:02:00,22.4,15.1,30.36,NE,49,0.0,7.0,73,0.00,,,0.00,Wunderground v.1.15,2013-02-22 10:02:00,
2013-02-22 05:08:00,22.4,15.1,30.36,ENE,64,1.0,7.0,73,0.00,,,0.00,Wunderground v.1.15,2013-02-22 10:08:00,
2013-02-22 05:14:00,22.4,15.1,30.36,North,11,1.0,7.0,73,0.00,,,0.00,Wunderground v.1.15,2013-02-22 10:14:00,
2013-02-22 05:20:00,22.5,15.1,30.36,ENE,64,2.0,7.0,73,0.00,,,0.00,Wunderground v.1.15,2013-02-22 10:20:00,
2013-02-22 05:26:00,22.7,15.3,30.36,ENE,58,2.0,7.0,73,0.00,,,0.00,Wunderground v.1.15,2013-02-22 10:26:00,
2013-02-22 05:32:00,22.9,15.5,30.36,NNE,15,1.0,7.0,73,0.00,,,0.00,Wunderground v.1.15,2013-02-22 10:32:00,
2013-02-22 05:38:00,23.0,15.6,30.36,NE,40,2.0,7.0,73,0.00,,,0.00,Wunderground v.1.15,2013-02-22 10:38:00,
2013-02-22 05:44:00,23.0,15.6,30.36,ENE,69,3.0,7.0,73,0.00,,,0.00,Wunderground v.1.15,2013-02-22 10:44:00,
2013-02-22 05:50:00,23.2,15.8,30.36,North,11,2.0,3.0,73,0.00,,,0.00,Wunderground v.1.15,2013-02-22 10:50:00,
2013-02-22 05:56:00,23.0,15.6,30.36,NE,40,1.0,7.0,73,0.00,,,0.00,Wunderground v.1.15,2013-02-22 10:56:00,
2013-02-22 06:02:00,23.0,15.6,30.36,NE,44,2.0,7.0,73,0.00,,,0.00,Wunderground v.1.15,2013-02-22 11:02:00,
2013-02-22 06:08:00,23.0,15.6,30.36,ENE,70,3.0,3.0,73,0.00,,,0.00,Wunderground v.1.15,2013-02-22 11:08:00,
2013-02-22 06:14:00,23.0,15.6,30.36,NNE,25,2.0,7.0,73,0.00,,,0.00,Wunderground v.1.15,2013-02-22 11:14:00,
2013-02-22 06:20:00,22.9,15.8,30.36,North,360,1.0,7.0,74,0.00,,,0.00,Wunderground v.1.15,2013-02-22 11:20:00,
2013-02-22 06:26:00,22.9,15.8,30.37,ENE,73,1.0,7.0,74,0.00,,,0.00,Wunderground v.1.15,2013-02-22 11:26:00,
2013-02-22 06:32:00,22.9,15.8,30.38,NNE,16,0.0,7.0,74,0.00,,,0.00,Wunderground v.1.15,2013-02-22 11:32:00,
2013-02-22 06:38:00,22.7,15.7,30.38,NE,49,0.0,7.0,74,0.00,,,0.00,Wunderground v.1.15,2013-02-22 11:38:00,
2013-02-22 06:44:00,22.7,15.7,30.39,NE,38,1.0,7.0,74,0.00,,,0.00,Wunderground v.1.15,2013-02-22 11:44:00,
2013-02-22 06:50:00,22.7,15.7,30.39,NE,38,0.0,7.0,74,0.00,,,0.00,Wunderground v.1.15,2013-02-22 11:50:00,
2013-02-22 06:56:00,22.7,15.7,30.40,NNE,30,1.0,7.0,74,0.00,,,0.00,Wunderground v.1.15,2013-02-22 11:56:00,
2013-02-22 07:02:00,22.5,15.5,30.41,North,360,1.0,7.0,74,0.00,,,0.00,Wunderground v.1.15,2013-02-22 12:02:00,
2013-02-22 07:08:00,22.5,15.5,30.41,North,5,0.0,7.0,74,0.00,,,0.00,Wunderground v.1.15,2013-02-22 12:08:00,
2013-02-22 07:14:00,22.7,15.7,30.41,North,360,0.0,7.0,74,0.00,,,0.00,Wunderground v.1.15,2013-02-22 12:14:00,
2013-02-22 07:20:00,22.7,15.7,30.42,NE,53,0.0,7.0,74,0.00,,,0.00,Wunderground v.1.15,2013-02-22 12:20:00,
2013-02-22 07:26:00,22.7,15.3,30.42,NNW,333,0.0,7.0,73,0.00,,,0.00,Wunderground v.1.15,2013-02-22 12:26:00,
2013-02-22 07:32:00,22.9,15.5,30.42,North,355,1.0,7.0,73,0.00,,,0.00,Wunderground v.1.15,2013-02-22 12:32:00,
2013-02-22 07:38:00,22.9,15.5,30.42,NNE,18,1.0,7.0,73,0.00,,,0.00,Wunderground v.1.15,2013-02-22 12:38:00,
2013-02-22 07:43:00,23.0,15.6,30.43,NNW,346,2.0,7.0,73,0.00,,,0.00,Wunderground v.1.15,2013-02-22 12:43:00,
2013-02-22 07:50:00,23.3,15.9,30.43,NNE,14,3.0,7.0,73,0.00,,,0.00,Wunderground v.1.15,2013-02-22 12:50:00,
2013-02-22 07:56:00,23.5,16.1,30.42,NNW,331,3.0,7.0,73,0.00,,,0.00,Wunderground v.1.15,2013-02-22 12:56:00,
2013-02-22 08:01:00,23.8,16.1,30.42,NNE,24,2.0,7.0,72,0.00,,,0.00,Wunderground v.1.15,2013-02-22 13:01:00,
2013-02-22 08:08:00,24.1,16.4,30.42,ENE,71,3.0,3.0,72,0.00,,,0.00,Wunderground v.1.15,2013-02-22 13:08:00,
2013-02-22 08:14:00,24.2,16.1,30.42,NNE,13,2.0,7.0,71,0.00,,,0.00,Wunderground v.1.15,2013-02-22 13:14:00,
2013-02-22 08:19:00,24.4,16.3,30.42,NNW,331,2.0,7.0,71,0.00,,,0.00,Wunderground v.1.15,2013-02-22 13:19:00,
2013-02-22 08:26:00,24.5,16.1,30.42,NNE,12,2.0,7.0,70,0.00,,,0.00,Wunderground v.1.15,2013-02-22 13:26:00,
2013-02-22 08:32:00,24.8,16.4,30.41,NNE,15,3.0,7.0,70,0.00,,,0.00,Wunderground v.1.15,2013-02-22 13:32:00,
2013-02-22 08:37:00,25.0,16.6,30.41,NE,36,2.0,2.0,70,0.00,,,0.00,Wunderground v.1.15,2013-02-22 13:37:00,
2013-02-22 08:44:00,25.1,16.4,30.41,ENE,59,3.0,7.0,69,0.00,,,0.00,Wunderground v.1.15,2013-02-22 13:44:00,
2013-02-22 08:50:00,25.3,16.5,30.41,ENE,58,3.0,7.0,69,0.00,,,0.00,Wunderground v.1.15,2013-02-22 13:50:00,
2013-02-22 08:55:00,25.6,16.8,30.41,North,360,2.0,7.0,69,0.00,,,0.00,Wunderground v.1.15,2013-02-22 13:55:00,
2013-02-22 09:01:00,25.8,17.0,30.41,NNE,24,2.0,7.0,69,0.00,,,0.00,Wunderground v.1.15,2013-02-22 14:01:00,
2013-02-22 09:08:00,26.3,17.2,30.41,NW,321,2.0,2.0,68,0.00,,,0.00,Wunderground v.1.15,2013-02-22 14:08:00,
2013-02-22 09:13:00,26.4,17.3,30.41,ENE,64,2.0,7.0,68,0.00,,,0.00,Wunderground v.1.15,2013-02-22 14:13:00,
2013-02-22 09:19:00,26.6,17.1,30.41,NNE,24,3.0,7.0,67,0.00,,,0.00,Wunderground v.1.15,2013-02-22 14:19:00,
2013-02-22 09:26:00,26.7,17.2,30.41,NE,52,2.0,7.0,67,0.00,,,0.00,Wunderground v.1.15,2013-02-22 14:26:00,
2013-02-22 09:31:00,26.9,17.4,30.41,NNE,19,3.0,7.0,67,0.00,,,0.00,Wunderground v.1.15,2013-02-22 14:31:00,
2013-02-22 09:37:00,27.2,17.3,30.40,NNE,17,2.0,7.0,66,0.00,,,0.00,Wunderground v.1.15,2013-02-22 14:37:00,
2013-02-22 09:43:00,27.3,17.4,30.39,NE,40,3.0,7.0,66,0.00,,,0.00,Wunderground v.1.15,2013-02-22 14:43:00,
2013-02-22 09:50:00,27.8,17.6,30.39,North,349,2.0,7.0,65,0.00,,,0.00,Wunderground v.1.15,2013-02-22 14:50:00,
2013-02-22 09:55:00,27.8,17.2,30.39,NNW,331,2.0,7.0,64,0.00,,,0.00,Wunderground v.1.15,2013-02-22 14:55:00,
2013-02-22 10:01:00,27.8,17.2,30.38,NE,41,2.0,7.0,64,0.00,,,0.00,Wunderground v.1.15,2013-02-22 15:01:00,
2013-02-22 10:07:00,27.9,17.3,30.38,North,360,1.0,1.0,64,0.00,,,0.00,Wunderground v.1.15,2013-02-22 15:07:00,
2013-02-22 10:14:00,28.2,17.6,30.38,North,360,1.0,7.0,64,0.00,,,0.00,Wunderground v.1.15,2013-02-22 15:14:00,
2013-02-22 10:19:00,28.5,17.9,30.38,NNW,327,2.0,7.0,64,0.00,,,0.00,Wunderground v.1.15,2013-02-22 15:19:00,
2013-02-22 10:25:00,29.3,18.6,30.39,North,351,2.0,7.0,64,0.00,,,0.00,Wunderground v.1.15,2013-02-22 15:25:00,
2013-02-22 10:31:00,30.6,19.1,30.39,NE,42,0.0,4.0,62,0.00,,,0.00,Wunderground v.1.15,2013-02-22 15:31:00,
2013-02-22 10:38:00,31.6,18.9,30.39,East,95,1.0,1.0,59,0.00,,,0.00,Wunderground v.1.15,2013-02-22 15:38:00,
2013-02-22 10:43:00,32.4,19.3,30.39,North,9,0.0,7.0,58,0.00,,,0.00,Wunderground v.1.15,2013-02-22 15:43:00,
2013-02-22 10:49:00,32.9,18.9,30.39,SSE,150,0.0,7.0,56,0.00,,,0.00,Wunderground v.1.15,2013-02-22 15:49:00,
2013-02-22 10:55:00,33.5,19.0,30.39,ENE,75,0.0,7.0,55,0.00,,,0.00,Wunderground v.1.15,2013-02-22 15:55:00,
2013-02-22 11:01:00,33.8,18.9,30.39,SSW,194,0.0,7.0,54,0.00,,,0.00,Wunderground v.1.15,2013-02-22 16:01:00,
2013-02-22 11:07:00,34.0,18.6,30.39,North,360,0.0,7.0,53,0.00,,,0.00,Wunderground v.1.15,2013-02-22 16:07:00,
2013-02-22 11:13:00,34.3,19.4,30.39,North,360,0.0,7.0,54,0.00,,,0.00,Wunderground v.1.15,2013-02-22 16:13:00,
2013-02-22 11:19:00,34.6,19.2,30.39,North,360,0.0,7.0,53,0.00,,,0.00,Wunderground v.1.15,2013-02-22 16:19:00,
2013-02-22 11:25:00,35.0,19.1,30.39,South,180,0.0,7.0,52,0.00,,,0.00,Wunderground v.1.15,2013-02-22 16:25:00,
2013-02-22 11:31:00,35.0,19.1,30.39,NNE,24,1.0,7.0,52,0.00,,,0.00,Wunderground v.1.15,2013-02-22 16:31:00,
2013-02-22 11:37:00,34.4,18.6,30.39,NW,319,1.0,1.0,52,0.00,,,0.00,Wunderground v.1.15,2013-02-22 16:37:00,
2013-02-22 11:43:00,34.3,18.9,30.38,NW,313,1.0,7.0,53,0.00,,,0.00,Wunderground v.1.15,2013-02-22 16:43:00,
2013-02-22 11:48:00,34.9,19.0,30.38,SE,138,0.0,7.0,52,0.00,,,0.00,Wunderground v.1.15,2013-02-22 16:48:00,
2013-02-22 11:54:00,35.0,19.1,30.38,SSE,162,0.0,7.0,52,0.00,,,0.00,Wunderground v.1.15,2013-02-22 16:54:00,
2013-02-22 12:00:00,35.5,19.1,30.38,SSE,156,0.0,7.0,51,0.00,,,0.00,Wunderground v.1.15,2013-02-22 17:00:00,
2013-02-22 12:06:00,35.8,19.0,30.38,SSE,156,0.0,7.0,50,0.00,,,0.00,Wunderground v.1.15,2013-02-22 17:06:00,
2013-02-22 12:12:00,35.9,19.0,30.37,SSE,156,0.0,7.0,50,0.00,,,0.00,Wunderground v.1.15,2013-02-22 17:12:00,
2013-02-22 12:18:00,36.0,19.1,30.36,North,9,1.0,7.0,50,0.00,,,0.00,Wunderground v.1.15,2013-02-22 17:18:00,
2013-02-22 12:24:00,35.8,19.0,30.36,SE,142,1.0,7.0,50,0.00,,,0.00,Wunderground v.1.15,2013-02-22 17:24:00,
2013-02-22 12:30:00,35.9,19.0,30.36,South,182,0.0,7.0,50,0.00,,,0.00,Wunderground v.1.15,2013-02-22 17:30:00,
2013-02-22 12:36:00,35.9,19.0,30.36,ESE,105,0.0,7.0,50,0.00,,,0.00,Wunderground v.1.15,2013-02-22 17:36:00,
2013-02-22 12:42:00,35.9,19.0,30.36,SE,137,1.0,7.0,50,0.00,,,0.00,Wunderground v.1.15,2013-02-22 17:42:00,
2013-02-22 12:48:00,36.3,18.9,30.35,SSE,158,1.0,1.0,49,0.00,,,0.00,Wunderground v.1.15,2013-02-22 17:48:00,
2013-02-22 12:54:00,37.2,19.3,30.35,SSE,152,0.0,7.0,48,0.00,,,0.00,Wunderground v.1.15,2013-02-22 17:54:00,
2013-02-22 13:00:00,37.6,19.2,30.34,NE,45,0.0,7.0,47,0.00,,,0.00,Wunderground v.1.15,2013-02-22 18:00:00,
2013-02-22 13:06:00,37.5,19.1,30.33,ENE,69,1.0,7.0,47,0.00,,,0.00,Wunderground v.1.15,2013-02-22 18:06:00,
2013-02-22 13:12:00,37.3,18.9,30.33,South,179,1.0,7.0,47,0.00,,,0.00,Wunderground v.1.15,2013-02-22 18:12:00,
2013-02-22 13:18:00,37.2,19.3,30.32,NNE,33,1.0,1.0,48,0.00,,,0.00,Wunderground v.1.15,2013-02-22 18:18:00,
2013-02-22 13:24:00,37.0,19.1,30.31,NE,46,1.0,7.0,48,0.00,,,0.00,Wunderground v.1.15,2013-02-22 18:24:00,
2013-02-22 13:30:00,36.8,19.4,30.30,NE,40,1.0,4.0,49,0.00,,,0.00,Wunderground v.1.15,2013-02-22 18:30:00,
2013-02-22 13:36:00,36.5,19.6,30.30,ENE,59,1.0,7.0,50,0.00,,,0.00,Wunderground v.1.15,2013-02-22 18:36:00,
2013-02-22 13:42:00,36.8,19.4,30.31,SW,215,0.0,7.0,49,0.00,,,0.00,Wunderground v.1.15,2013-02-22 18:42:00,
2013-02-22 13:48:00,37.0,19.6,30.31,SSE,164,0.0,7.0,49,0.00,,,0.00,Wunderground v.1.15,2013-02-22 18:48:00,
2013-02-22 13:54:00,37.2,19.3,30.31,ENE,61,0.0,7.0,48,0.00,,,0.00,Wunderground v.1.15,2013-02-22 18:54:00,
2013-02-22 14:00:00,37.3,19.4,30.31,South,179,0.0,7.0,48,0.00,,,0.00,Wunderground v.1.15,2013-02-22 19:00:00,
2013-02-22 14:06:00,37.6,19.7,30.32,South,179,0.0,7.0,48,0.00,,,0.00,Wunderground v.1.15,2013-02-22 19:06:00,
2013-02-22 14:12:00,37.9,19.4,30.31,ESE,118,0.0,7.0,47,0.00,,,0.00,Wunderground v.1.15,2013-02-22 19:12:00,
2013-02-22 14:18:00,37.9,19.9,30.31,South,172,1.0,7.0,48,0.00,,,0.00,Wunderground v.1.15,2013-02-22 19:18:00,
2013-02-22 14:24:00,37.8,19.3,30.31,SSE,159,1.0,7.0,47,0.00,,,0.00,Wunderground v.1.15,2013-02-22 19:24:00,
2013-02-22 14:30:00,37.6,19.2,30.30,SSE,151,0.0,7.0,47,0.00,,,0.00,Wunderground v.1.15,2013-02-22 19:30:00,
2013-02-22 14:36:00,37.6,19.7,30.30,East,86,0.0,7.0,48,0.00,,,0.00,Wunderground v.1.15,2013-02-22 19:36:00,
2013-02-22 14:42:00,37.6,19.7,30.31,SE,140,1.0,7.0,48,0.00,,,0.00,Wunderground v.1.15,2013-02-22 19:42:00,
2013-02-22 14:48:00,37.8,19.8,30.31,South,169,1.0,1.0,48,0.00,,,0.00,Wunderground v.1.15,2013-02-22 19:48:00,
2013-02-22 14:54:00,37.9,19.9,30.31,SSE,155,0.0,7.0,48,0.00,,,0.00,Wunderground v.1.15,2013-02-22 19:54:00,
2013-02-22 15:00:00,37.9,19.9,30.30,SSE,164,1.0,7.0,48,0.00,,,0.00,Wunderground v.1.15,2013-02-22 20:00:00,
2013-02-22 15:06:00,37.8,19.8,30.30,SSE,165,1.0,7.0,48,0.00,,,0.00,Wunderground v.1.15,2013-02-22 20:06:00,
2013-02-22 15:12:00,37.8,19.8,30.30,South,169,1.0,7.0,48,0.00,,,0.00,Wunderground v.1.15,2013-02-22 20:12:00,
2013-02-22 15:18:00,37.8,19.8,30.30,SSE,168,0.0,7.0,48,0.00,,,0.00,Wunderground v.1.15,2013-02-22 20:18:00,
2013-02-22 15:24:00,37.5,20.1,30.30,South,180,1.0,7.0,49,0.00,,,0.00,Wunderground v.1.15,2013-02-22 20:24:00,
2013-02-22 15:30:00,37.3,19.9,30.29,SSE,158,1.0,7.0,49,0.00,,,0.00,Wunderground v.1.15,2013-02-22 20:30:00,
2013-02-22 15:36:00,37.3,19.4,30.29,SE,136,1.0,7.0,48,0.00,,,0.00,Wunderground v.1.15,2013-02-22 20:36:00,
2013-02-22 15:42:00,37.2,19.8,30.29,SSE,164,0.0,7.0,49,0.00,,,0.00,Wunderground v.1.15,2013-02-22 20:42:00,
2013-02-22 15:48:00,37.2,19.8,30.30,South,180,0.0,7.0,49,0.00,,,0.00,Wunderground v.1.15,2013-02-22 20:48:00,
2013-02-22 15:54:00,37.0,19.6,30.30,SSE,166,0.0,7.0,49,0.00,,,0.00,Wunderground v.1.15,2013-02-22 20:54:00,
2013-02-22 16:00:00,37.0,19.6,30.30,SE,130,0.0,7.0,49,0.00,,,0.00,Wunderground v.1.15,2013-02-22 21:00:00,
2013-02-22 16:06:00,36.9,20.0,30.30,ESE,103,0.0,7.0,50,0.00,,,0.00,Wunderground v.1.15,2013-02-22 21:06:00,
2013-02-22 16:12:00,36.9,19.5,30.30,East,97,0.0,7.0,49,0.00,,,0.00,Wunderground v.1.15,2013-02-22 21:12:00,
2013-02-22 16:18:00,36.9,20.0,30.30,SSE,168,1.0,7.0,50,0.00,,,0.00,Wunderground v.1.15,2013-02-22 21:18:00,
2013-02-22 16:24:00,36.9,20.4,30.30,SSE,168,1.0,7.0,51,0.00,,,0.00,Wunderground v.1.15,2013-02-22 21:24:00,
2013-02-22 16:30:00,36.9,20.4,30.30,SSE,168,0.0,7.0,51,0.00,,,0.00,Wunderground v.1.15,2013-02-22 21:30:00,
2013-02-22 16:36:00,36.9,20.4,30.30,South,175,0.0,7.0,51,0.00,,,0.00,Wunderground v.1.15,2013-02-22 21:36:00,
2013-02-22 16:42:00,36.9,20.4,30.31,South,175,0.0,7.0,51,0.00,,,0.00,Wunderground v.1.15,2013-02-22 21:42:00,
2013-02-22 16:48:00,36.9,20.0,30.30,South,175,0.0,7.0,50,0.00,,,0.00,Wunderground v.1.15,2013-02-22 21:48:00,
2013-02-22 16:54:00,36.8,20.3,30.30,South,175,0.0,7.0,51,0.00,,,0.00,Wunderground v.1.15,2013-02-22 21:54:00,
2013-02-22 17:00:00,36.6,20.2,30.30,South,179,0.0,7.0,51,0.00,,,0.00,Wunderground v.1.15,2013-02-22 22:00:00,
2013-02-22 17:06:00,36.5,20.1,30.30,SSE,153,0.0,7.0,51,0.00,,,0.00,Wunderground v.1.15,2013-02-22 22:06:00,
2013-02-22 17:12:00,36.3,20.3,30.31,SSE,165,0.0,7.0,52,0.00,,,0.00,Wunderground v.1.15,2013-02-22 22:12:00,
2013-02-22 17:18:00,36.2,20.2,30.30,SSE,155,1.0,1.0,52,0.00,,,0.00,Wunderground v.1.15,2013-02-22 22:18:00,
2013-02-22 17:24:00,36.0,20.1,30.31,SSE,155,0.0,7.0,52,0.00,,,0.00,Wunderground v.1.15,2013-02-22 22:24:00,
2013-02-22 17:30:00,35.9,20.0,30.31,SSE,165,0.0,7.0,52,0.00,,,0.00,Wunderground v.1.15,2013-02-22 22:30:00,
2013-02-22 17:36:00,35.9,20.4,30.31,SSE,162,0.0,7.0,53,0.00,,,0.00,Wunderground v.1.15,2013-02-22 22:36:00,
2013-02-22 17:42:00,35.8,20.8,30.30,SSE,165,1.0,7.0,54,0.00,,,0.00,Wunderground v.1.15,2013-02-22 22:42:00,
2013-02-22 17:48:00,35.6,20.6,30.31,South,172,1.0,1.0,54,0.00,,,0.00,Wunderground v.1.15,2013-02-22 22:48:00,
2013-02-22 17:53:00,35.5,20.5,30.31,SSE,150,1.0,7.0,54,0.00,,,0.00,Wunderground v.1.15,2013-02-22 22:53:00,
2013-02-22 17:59:00,35.5,20.5,30.31,South,176,1.0,7.0,54,0.00,,,0.00,Wunderground v.1.15,2013-02-22 22:59:00,
2013-02-22 18:06:00,35.3,20.7,30.31,SSE,157,1.0,7.0,55,0.00,,,0.00,Wunderground v.1.15,2013-02-22 23:06:00,
2013-02-22 18:12:00,35.2,21.1,30.31,South,187,1.0,7.0,56,0.00,,,0.00,Wunderground v.1.15,2013-02-22 23:12:00,
2013-02-22 18:17:00,35.2,21.1,30.30,South,173,1.0,7.0,56,0.00,,,0.00,Wunderground v.1.15,2013-02-22 23:17:00,
2013-02-22 18:23:00,35.0,21.7,30.30,SSE,161,1.0,7.0,58,0.00,,,0.00,Wunderground v.1.15,2013-02-22 23:23:00,
2013-02-22 18:29:00,34.9,22.0,30.31,SSE,158,1.0,7.0,59,0.00,,,0.00,Wunderground v.1.15,2013-02-22 23:29:00,
2013-02-22 18:36:00,34.7,21.8,30.31,South,178,1.0,7.0,59,0.00,,,0.00,Wunderground v.1.15,2013-02-22 23:36:00,
2013-02-22 18:41:00,34.7,22.2,30.31,SSE,163,1.0,7.0,60,0.00,,,0.00,Wunderground v.1.15,2013-02-22 23:41:00,
2013-02-22 18:47:00,34.6,22.1,30.31,SSE,167,1.0,1.0,60,0.00,,,0.00,Wunderground v.1.15,2013-02-22 23:47:00,
2013-02-22 18:54:00,34.4,22.7,30.31,SSE,168,1.0,7.0,62,0.00,,,0.00,Wunderground v.1.15,2013-02-22 23:54:00,
2013-02-22 18:59:00,34.3,22.6,30.31,SSE,161,1.0,7.0,62,0.00,,,0.00,Wunderground v.1.15,2013-02-22 23:59:00,
2013-02-22 19:05:00,34.3,22.6,30.31,SSE,163,0.0,7.0,62,0.00,,,0.00,Wunderground v.1.15,2013-02-23 00:05:00,
2013-02-22 19:12:00,34.1,22.4,30.31,SSE,163,0.0,7.0,62,0.00,,,0.00,Wunderground v.1.15,2013-02-23 00:12:00,
2013-02-22 19:17:00,34.1,22.8,30.31,SSE,163,0.0,7.0,63,0.00,,,0.00,Wunderground v.1.15,2013-02-23 00:17:00,
2013-02-22 19:23:00,34.1,22.8,30.30,SSE,158,0.0,7.0,63,0.00,,,0.00,Wunderground v.1.15,2013-02-23 00:23:00,
2013-02-22 19:29:00,34.0,22.7,30.30,South,187,0.0,7.0,63,0.00,,,0.00,Wunderground v.1.15,2013-02-23 00:29:00,
2013-02-22 19:35:00,34.0,22.7,30.29,SSE,159,0.0,7.0,63,0.00,,,0.00,Wunderground v.1.15,2013-02-23 00:35:00,
2013-02-22 19:42:00,34.0,22.7,30.30,SSE,161,1.0,7.0,63,0.00,,,0.00,Wunderground v.1.15,2013-02-23 00:42:00,
2013-02-22 19:47:00,33.8,22.9,30.30,South,169,1.0,7.0,64,0.00,,,0.00,Wunderground v.1.15,2013-02-23 00:47:00,
2013-02-22 19:53:00,33.8,22.9,30.30,South,174,1.0,7.0,64,0.00,,,0.00,Wunderground v.1.15,2013-02-23 00:53:00,
2013-02-22 19:59:00,33.8,22.9,30.31,SSE,163,1.0,7.0,64,0.00,,,0.00,Wunderground v.1.15,2013-02-23 00:59:00,
2013-02-22 20:05:00,33.8,22.9,30.30,SSE,163,1.0,7.0,64,0.00,,,0.00,Wunderground v.1.15,2013-02-23 01:05:00,
2013-02-22 20:11:00,33.7,22.8,30.30,SSE,156,0.0,7.0,64,0.00,,,0.00,Wunderground v.1.15,2013-02-23 01:11:00,
2013-02-22 20:17:00,33.7,23.2,30.30,SE,140,0.0,7.0,65,0.00,,,0.00,Wunderground v.1.15,2013-02-23 01:17:00,
2013-02-22 20:23:00,33.7,23.2,30.30,SSE,149,0.0,7.0,65,0.00,,,0.00,Wunderground v.1.15,2013-02-23 01:23:00,
2013-02-22 20:29:00,33.7,23.2,30.30,SSE,149,0.0,7.0,65,0.00,,,0.00,Wunderground v.1.15,2013-02-23 01:29:00,
2013-02-22 20:35:00,33.7,23.2,30.31,SSE,149,0.0,7.0,65,0.00,,,0.00,Wunderground v.1.15,2013-02-23 01:35:00,
2013-02-22 20:41:00,33.7,23.5,30.31,South,181,0.0,7.0,66,0.00,,,0.00,Wunderground v.1.15,2013-02-23 01:41:00,
2013-02-22 20:48:00,33.5,23.4,30.30,South,169,0.0,7.0,66,0.00,,,0.00,Wunderground v.1.15,2013-02-23 01:48:00,
2013-02-22 20:54:00,33.5,23.4,30.30,South,169,0.0,7.0,66,0.00,,,0.00,Wunderground v.1.15,2013-02-23 01:54:00,
2013-02-22 21:00:00,33.5,23.7,30.30,South,169,0.0,7.0,67,0.00,,,0.00,Wunderground v.1.15,2013-02-23 02:00:00,
2013-02-22 21:06:00,33.5,23.7,30.30,SSE,168,1.0,7.0,67,0.00,,,0.00,Wunderground v.1.15,2013-02-23 02:06:00,
2013-02-22 21:12:00,33.5,23.7,30.30,South,169,1.0,7.0,67,0.00,,,0.00,Wunderground v.1.15,2013-02-23 02:12:00,
2013-02-22 21:18:00,33.5,24.1,30.30,South,169,0.0,7.0,68,0.00,,,0.00,Wunderground v.1.15,2013-02-23 02:18:00,
2013-02-22 21:24:00,33.4,24.0,30.30,South,169,0.0,7.0,68,0.00,,,0.00,Wunderground v.1.15,2013-02-23 02:24:00,
2013-02-22 21:30:00,33.4,24.0,30.30,South,171,0.0,7.0,68,0.00,,,0.00,Wunderground v.1.15,2013-02-23 02:30:00,
2013-02-22 21:36:00,33.4,24.0,30.30,SSE,163,1.0,7.0,68,0.00,,,0.00,Wunderground v.1.15,2013-02-23 02:36:00,
2013-02-22 21:42:00,33.4,24.0,30.29,SE,145,0.0,7.0,68,0.00,,,0.00,Wunderground v.1.15,2013-02-23 02:42:00,
2013-02-22 21:48:00,33.4,24.3,30.29,SSE,155,0.0,7.0,69,0.00,,,0.00,Wunderground v.1.15,2013-02-23 02:48:00,
2013-02-22 21:54:00,33.2,24.1,30.29,SSE,155,0.0,7.0,69,0.00,,,0.00,Wunderground v.1.15,2013-02-23 02:54:00,
2013-02-22 22:00:00,33.2,24.1,30.29,South,188,0.0,7.0,69,0.00,,,0.00,Wunderground v.1.15,2013-02-23 03:00:00,
2013-02-22 22:06:00,33.2,24.1,30.29,South,188,0.0,7.0,69,0.00,,,0.00,Wunderground v.1.15,2013-02-23 03:06:00,
2013-02-22 22:12:00,33.2,24.1,30.29,South,188,0.0,7.0,69,0.00,,,0.00,Wunderground v.1.15,2013-02-23 03:12:00,
2013-02-22 22:18:00,33.2,24.1,30.29,South,188,0.0,7.0,69,0.00,,,0.00,Wunderground v.1.15,2013-02-23 03:18:00,
2013-02-22 22:24:00,33.2,24.1,30.28,South,188,0.0,7.0,69,0.00,,,0.00,Wunderground v.1.15,2013-02-23 03:24:00,
2013-02-22 22:30:00,33.2,24.1,30.28,South,188,0.0,7.0,69,0.00,,,0.00,Wunderground v.1.15,2013-02-23 03:30:00,
2013-02-22 22:36:00,33.1,24.4,30.28,South,188,0.0,7.0,70,0.00,,,0.00,Wunderground v.1.15,2013-02-23 03:36:00,
2013-02-22 22:42:00,33.1,24.4,30.29,South,188,0.0,7.0,70,0.00,,,0.00,Wunderground v.1.15,2013-02-23 03:42:00,
2013-02-22 22:48:00,33.1,24.4,30.29,South,188,0.0,7.0,70,0.00,,,0.00,Wunderground v.1.15,2013-02-23 03:48:00,
2013-02-22 22:54:00,33.1,24.4,30.28,South,188,0.0,7.0,70,0.00,,,0.00,Wunderground v.1.15,2013-02-23 03:54:00,
2013-02-22 23:00:00,33.1,24.7,30.28,South,188,0.0,7.0,71,0.00,,,0.00,Wunderground v.1.15,2013-02-23 04:00:00,
2013-02-22 23:06:00,33.1,24.7,30.28,South,188,0.0,7.0,71,0.00,,,0.00,Wunderground v.1.15,2013-02-23 04:06:00,
2013-02-22 23:12:00,33.1,24.7,30.28,South,188,0.0,7.0,71,0.00,,,0.00,Wunderground v.1.15,2013-02-23 04:12:00,
2013-02-22 23:18:00,33.1,24.7,30.28,South,188,0.0,7.0,71,0.00,,,0.00,Wunderground v.1.15,2013-02-23 04:18:00,
2013-02-22 23:24:00,33.1,24.7,30.28,South,188,0.0,7.0,71,0.00,,,0.00,Wunderground v.1.15,2013-02-23 04:24:00,
2013-02-22 23:30:00,32.9,24.5,30.28,South,188,0.0,7.0,71,0.00,,,0.00,Wunderground v.1.15,2013-02-23 04:30:00,
2013-02-22 23:36:00,32.9,24.5,30.28,South,188,0.0,7.0,71,0.00,,,0.00,Wunderground v.1.15,2013-02-23 04:36:00,
2013-02-22 23:42:00,32.9,24.5,30.28,South,188,0.0,7.0,71,0.00,,,0.00,Wunderground v.1.15,2013-02-23 04:42:00,
2013-02-22 23:48:00,32.9,24.5,30.27,South,188,0.0,7.0,71,0.00,,,0.00,Wunderground v.1.15,2013-02-23 04:48:00,
2013-02-22 23:54:00,32.9,24.9,30.27,South,188,0.0,7.0,72,0.00,,,0.00,Wunderground v.1.15,2013-02-23 04:54:00,